Location: *
(40.9167°N, 9.5000°E)
Time: 08:16:49
(UTC+00:00)

Cosmos 1703 - Pass Details

Date: 09 April 2020
Orbit: 523 x 541 km, 82.5° (Epoch: 03 June)

Event Time Altitude Azimuth Distance (km) Brightness Sun altitude
Rises 19:00:26 0° 350° (N) 2,705 7.3 -12.5°
Reaches altitude 10° 19:02:36 10° 349° (N) 1,810 6.4 -12.9°
Maximum altitude 19:06:35 78° 264° (W) 558 3.4 -13.6°
Drops below altitude 10° 19:10:32 10° 178° (S) 1,798 5.7 -14.3°
Enters shadow 19:11:54 - 177° (S) 2,360 6.3 -14.5°
